Location: Newark
(40.3417°N, 75.9264°W)
Time: 19:26:54
(UTC+00:00)

Hubble Space Telescope - Visible Passes

Search period start: 19 February 2020 00:00
Search period end: 29 February 2020 00:00
Orbit: 536 x 540 km, 28.5° (Epoch: 19 February)

Date Brightness Start Highest point End Pass type
(mag) Time Alt. Az. Time Alt. Az. Time Alt. Az.
22 Feb 3.6 01:11:43 10° SW 01:11:57 11° SSW 01:11:57 11° SSW visible
22 Feb 3.2 23:21:40 10° S 23:23:01 11° SSE 23:24:23 10° SSE visible
23 Feb 3.3 01:00:56 10° SW 01:02:00 13° SSW 01:02:00 13° SSW visible
24 Feb 3.0 00:50:12 10° SW 00:52:03 15° SSW 00:52:03 15° SSW visible
25 Feb 2.9 00:39:31 10° SW 00:41:57 15° S 00:42:05 15° S visible
26 Feb 3.0 00:28:55 10° SW 00:31:12 14° S 00:32:09 13° S visible
27 Feb 3.2 00:18:23 10° SW 00:20:26 13° S 00:22:14 11° SSE visible
28 Feb 3.3 00:08:00 10° SW 00:09:40 12° SSW 00:11:20 10° SSE visible
28 Feb 3.4 23:57:54 10° SSW 23:58:53 11° SSW 23:59:53 10° S visible
